Date String (YYYY-MM-DD hh:mm:ss) UTC,Instrument flags,absolute air pressure of the measurement (hPa),sample flow rate (lpm),inlet stack bypass flow (lpm),air temperature of the measurement (°C),ambient temperature measured by the external sensor (°C),aerosol sample conditioner tube jacket temperature (°C),OPC LED temperature (°C),internal box temperature (°C),relative humidity of the measurement (%),span deviation,mass concentration of particles derived from Lorenz-Mie calculation of OPC scattering (μg/m³),mass concentration of particles derived from Lorenz-Mie calculation of OPC scattering (μg/m³),mass concentration of particles derived from Lorenz-Mie calculation of OPC scattering (μg/m³)
DateTimeUTC,F1_M11,P_M11,Q1_M11,Q2_M11,T1_M11,T2_M11,T3_M11,T4_M11,T5_M11,U1_M11,ZSPAN_M11,X0_M11,X2_M11,X1_M11
2024-05-03 02:00:00,SystemResetWarning,0825.5,5.00,000.00,024.9,023.7,000.0,033.3,026.6,015.4,0000.0,0013.88,0004.18,0002.35
2024-05-03 02:01:00,SystemResetWarning,0825.5,4.99,000.00,024.9,023.9,000.0,033.3,026.6,015.4,0000.0,0013.63,0004.22,0002.33
2024-05-03 02:02:00,SystemResetWarning,0825.5,4.99,000.00,025.0,024.1,000.0,033.3,026.7,015.3,0000.0,0013.92,0004.31,0002.34
2024-05-03 02:03:00,SystemResetWarning,0825.5,5.01,000.00,025.0,024.2,000.0,033.3,026.8,015.3,0000.0,0014.21,0004.30,0002.34
2024-05-03 02:04:00,SystemResetWarning,0825.5,5.00,000.00,025.1,024.4,000.0,033.3,026.8,015.3,0000.0,0013.95,0004.31,0002.38
2024-05-03 02:05:00,SystemResetWarning,0825.5,5.00,000.00,025.1,024.5,000.0,033.3,026.9,015.3,0000.0,0013.83,0004.32,0002.40
2024-05-03 02:06:00,SystemResetWarning,0825.6,5.00,000.00,025.1,024.6,000.0,033.4,027.0,015.3,0000.0,0013.27,0004.29,0002.39
2024-05-03 02:07:00,SystemResetWarning,0825.6,5.00,000.00,025.2,024.7,000.0,033.4,027.1,015.3,0000.0,0012.71,0004.24,0002.38
2024-05-03 02:08:00,SystemResetWarning,0825.6,5.01,000.00,025.2,024.7,000.0,033.4,027.1,015.1,0000.0,0012.26,0004.20,0002.36
2024-05-03 02:09:00,SystemResetWarning,0825.6,5.00,000.00,025.3,024.8,000.0,033.4,027.1,015.0,0000.0,0012.04,0004.10,0002.34
2024-05-03 02:10:00,SystemResetWarning,0825.6,5.01,000.00,025.3,024.9,000.0,033.5,027.2,015.1,0000.0,0012.03,0004.11,0002.34
2024-05-03 02:11:00,SystemResetWarning,0825.7,4.99,000.00,025.4,024.9,000.0,033.5,027.3,015.1,0000.0,0012.03,0004.10,0002.33
2024-05-03 02:12:00,SystemResetWarning,0825.7,4.99,000.00,025.4,025.0,000.0,033.5,027.3,015.0,0000.0,0012.61,0004.11,0002.35
2024-05-03 02:13:00,SystemResetWarning,0825.8,5.02,000.00,025.5,025.0,000.0,033.6,027.3,015.0,0000.0,0012.62,0004.07,0002.36
2024-05-03 02:14:00,SystemResetWarning,0825.8,5.00,000.00,025.5,025.1,000.0,033.6,027.4,015.0,0000.0,0011.64,0004.08,0002.35
2024-05-03 02:15:00,SystemResetWarning,0825.8,5.00,000.00,025.5,025.1,000.0,033.6,027.4,014.9,0000.0,0011.74,0004.11,0002.35
2024-05-03 02:16:00,SystemResetWarning,0825.8,5.00,000.00,025.6,025.1,000.0,033.7,027.5,014.7,0000.0,0011.67,0004.17,0002.37
2024-05-03 02:17:00,SystemResetWarning,0825.9,5.00,000.00,025.6,025.1,000.0,033.7,027.5,015.0,0000.0,0012.43,0004.30,0002.44
2024-05-03 02:18:00,SystemResetWarning,0825.9,5.00,000.00,025.6,025.2,000.0,033.8,027.5,014.9,0000.0,0012.46,0004.37,0002.49
2024-05-03 02:19:00,SystemResetWarning,0825.9,5.00,000.00,025.6,025.2,000.0,033.8,027.5,015.0,0000.0,0012.18,0004.43,0002.57
2024-05-03 02:20:00,SystemResetWarning,0825.9,4.99,000.00,025.7,025.2,000.0,033.8,027.5,015.0,0000.0,0012.80,0004.55,0002.68
2024-05-03 02:21:00,SystemResetWarning,0825.9,4.99,000.00,025.6,024.6,000.0,033.9,027.1,015.0,0000.0,0013.53,0004.57,0002.76
2024-05-03 02:22:00,SystemResetWarning,0825.9,5.01,000.00,025.2,022.2,000.0,033.9,025.9,015.5,0000.0,0014.27,0004.64,0002.86
2024-05-03 02:23:00,SystemResetWarning,0825.9,5.00,000.00,024.9,021.7,000.0,033.9,025.5,015.6,0000.0,0014.08,0004.66,0002.95
2024-05-03 02:24:00,SystemResetWarning,0825.9,5.01,000.00,024.7,022.1,000.0,033.7,025.7,015.7,0000.0,0014.61,0004.72,0003.07
2024-05-03 02:25:00,SystemResetWarning,0825.9,4.99,000.00,024.7,022.4,000.0,033.5,026.0,015.7,0000.0,0017.20,0004.80,0003.16
2024-05-03 02:26:00,SystemResetWarning,0825.9,4.99,000.00,024.7,022.8,000.0,033.4,026.1,015.6,0000.0,0017.88,0004.93,0003.23
2024-05-03 02:27:00,SystemResetWarning,0825.9,5.00,000.00,024.7,023.2,000.0,033.4,026.3,015.5,0000.0,0019.11,0005.06,0003.29
2024-05-03 02:28:00,SystemResetWarning,0825.9,5.00,000.00,024.8,023.4,000.0,033.3,026.4,015.3,0000.0,0018.93,0005.05,0003.33
2024-05-03 02:29:00,SystemResetWarning,0826.0,5.01,000.00,024.8,023.7,000.0,033.3,026.5,015.2,0000.0,0018.76,0005.11,0003.39
2024-05-03 02:30:00,SystemResetWarning,0826.0,4.99,000.00,024.9,023.9,000.0,033.3,026.6,015.2,0000.0,0019.29,0005.17,0003.44
2024-05-03 02:31:00,SystemResetWarning,0826.0,4.99,000.00,024.9,024.0,000.0,033.3,026.7,015.1,0000.0,0019.62,0005.17,0003.49
2024-05-03 02:32:00,SystemResetWarning,0826.0,5.01,000.00,025.0,024.2,000.0,033.3,026.7,014.9,0000.0,0019.48,0005.24,0003.54
2024-05-03 02:33:00,SystemResetWarning,0826.1,5.00,000.00,025.0,024.3,000.0,033.3,026.8,014.8,0000.0,0019.27,0005.30,0003.60
2024-05-03 02:34:00,SystemResetWarning,0826.2,5.00,000.00,025.0,024.4,000.0,033.3,026.8,014.8,0000.0,0020.15,0005.46,0003.66
2024-05-03 02:35:00,SystemResetWarning,0826.2,5.00,000.00,025.1,024.5,000.0,033.3,026.9,014.7,0000.0,0019.67,0005.52,0003.69
2024-05-03 02:36:00,SystemResetWarning,0826.2,5.00,000.00,025.1,024.6,000.0,033.3,026.9,014.6,0000.0,0017.97,0005.58,0003.74
2024-05-03 02:37:00,SystemResetWarning,0826.3,5.00,000.00,025.2,024.7,000.0,033.3,027.0,014.6,0000.0,0018.35,0005.59,0003.78
2024-05-03 02:38:00,SystemResetWarning,0826.3,5.00,000.00,025.2,024.7,000.0,033.4,027.0,014.8,0000.0,0018.17,0005.50,0003.82
2024-05-03 02:39:00,SystemResetWarning,0826.4,5.00,000.00,025.2,024.8,000.0,033.4,027.1,014.9,0000.0,0018.78,0005.55,0003.86
2024-05-03 02:40:00,SystemResetWarning,0826.4,5.00,000.00,025.3,024.8,000.0,033.5,027.2,014.8,0000.0,0020.22,0005.59,0003.88
2024-05-03 02:41:00,SystemResetWarning,0826.4,5.00,000.00,025.3,024.9,000.0,033.5,027.2,014.7,0000.0,0020.08,0005.61,0003.91
2024-05-03 02:42:00,SystemResetWarning,0826.4,5.01,000.00,025.3,024.9,000.0,033.5,027.2,014.8,0000.0,0019.74,0005.69,0003.95
2024-05-03 02:43:00,SystemResetWarning,0826.4,5.00,000.00,025.4,024.9,000.0,033.6,027.3,014.7,0000.0,0020.57,0005.71,0003.97
2024-05-03 02:44:00,SystemResetWarning,0826.4,4.99,000.00,025.4,025.0,000.0,033.6,027.3,014.7,0000.0,0020.40,0005.72,0003.98
2024-05-03 02:45:00,SystemResetWarning,0826.4,4.99,000.00,025.4,025.0,000.0,033.6,027.3,014.8,0000.0,0020.44,0005.69,0003.99
2024-05-03 02:46:00,SystemResetWarning,0826.4,5.00,000.00,025.5,025.0,000.0,033.7,027.3,014.9,0000.0,0021.09,0005.67,0004.00
2024-05-03 02:47:00,SystemResetWarning,0826.3,5.00,000.00,025.5,025.0,000.0,033.7,027.4,014.8,0000.0,0021.93,0005.62,0003.99
2024-05-03 02:48:00,SystemResetWarning,0826.4,5.01,000.00,025.5,025.1,000.0,033.7,027.4,014.9,0000.0,0021.36,0005.54,0003.98
2024-05-03 02:49:00,SystemResetWarning,0826.3,5.00,000.00,025.5,025.1,000.0,033.8,027.5,014.9,0000.0,0021.21,0005.57,0003.96
2024-05-03 02:50:00,SystemResetWarning,0826.4,5.00,000.00,025.6,025.1,000.0,033.8,027.5,014.9,0000.0,0020.12,0005.55,0003.93
2024-05-03 02:51:00,SystemResetWarning,0826.4,5.00,000.00,025.6,025.1,000.0,033.8,027.5,015.0,0000.0,0019.59,0005.51,0003.91
2024-05-03 02:52:00,SystemResetWarning,0826.4,4.99,000.00,025.6,025.1,000.0,033.9,027.5,015.0,0000.0,0020.66,0005.47,0003.85
2024-05-03 02:53:00,SystemResetWarning,0826.4,5.00,000.00,025.6,025.2,000.0,033.9,027.5,015.0,0000.0,0021.75,0005.40,0003.78
2024-05-03 02:54:00,SystemResetWarning,0826.4,5.00,000.00,025.7,025.2,000.0,033.9,027.6,015.0,0000.0,0021.58,0005.35,0003.72
2024-05-03 02:55:00,SystemResetWarning,0826.4,5.01,000.00,025.7,025.2,000.0,033.9,027.6,015.0,0000.0,0021.77,0005.27,0003.66
2024-05-03 02:56:00,SystemResetWarning,0826.4,5.00,000.00,025.7,025.2,000.0,033.9,027.6,015.0,0000.0,0021.40,0005.15,0003.59
2024-05-03 02:57:00,SystemResetWarning,0826.5,5.00,000.00,025.7,025.2,000.0,034.0,027.6,015.0,0000.0,0020.67,0005.04,0003.50
2024-05-03 02:58:00,SystemResetWarning,0826.6,5.01,000.00,025.7,025.2,000.0,034.0,027.6,014.9,0000.0,0020.39,0005.01,0003.41
2024-05-03 02:59:00,SystemResetWarning,0826.6,5.00,000.00,025.7,025.2,000.0,034.0,027.6,014.9,0000.0,0021.31,0004.97,0003.34
